Terug naar catalogus

DMSP 5D-2 F13 DEB

ActiefPO
NORAD 40564·DEBRIS·🇺🇸 United States

Gelanceerd Mar 24, 1995 vanaf Vandenberg Space Force Base

Loading…

Volgende Passages (komende 24 uur)

TLE

VersSource: Space-Track

Epoch: Sep 14, 2026, 12:52 UTC

1 40564U 95015DX  26257.53654870  .00075490  00000-0  46176-2 0  9990
2 40564  98.6240   9.7888 0006235 187.3303 172.7833 15.09884414600462

Volg DMSP 5D-2 F13 DEB in realtime met AllMySat

Download on the App Store